Flag for U.S.A. Weather past 2 weeks in Sunrise, Florida, U.S.A.

Now
78 °F

Partly cloudy.


Feels Like: 80 °F
Forecast: 68 / 79 °F
Wind: 9 mph from Northeast

Location: Fort Lauderdale Executive Airport

Current Time: Mar 6, 2015 at 7:57:16 PM

Latest Report: Mar 6, 2015 at 6:53 PM


Visibility: 10 mi

Pressure: 30.16 "Hg

Humidity: 76%

Dew point: 70 °F

Location of SunriseLocation

Historic Weather in Sunrise — Graph

°F

Sunrise temperature yesterday

Maximum temperature yesterday: 84 °F (at 11:53 AM)
Minimum temperature yesterday: 75 °F (at 2:53 AM)
Average temperature yesterday: 78 °F

Past Weeks' High & Low Weather Summary

 TemperatureHumidityPressure
High87 °F (Feb 24, 2:53 PM)100% (Feb 23, 4:53 AM)30.36 "Hg (Feb 23, 4:53 AM)
Low40 °F (Feb 20, 4:53 AM)27% (Feb 19, 6:53 PM)29.82 "Hg (Feb 26, 2:53 AM)
Average73 °F74%30.14 "Hg
* Reported Feb 19 6:53 PM — Mar 6 6:53 PM, Sunrise, Weather by CustomWeather, © 2015

Note: Actual official high and low records may vary slightly from our data, if they occured in-between our weather recording intervals... More about our weather records

Advertising

Sunrise weather history for previous 24 hours

 ConditionsComfort  
Time TempWeatherWind HumidityBarometerVisibility
6:53 PM
Fri, Mar 6
78 °FPartly cloudy.9 mph76%30.16 "Hg10 mi
5:53 PM79 °FScattered clouds.10 mph69%30.14 "Hg10 mi
4:53 PM81 °FSunny.12 mph62%30.13 "Hg10 mi
3:53 PM84 °FPassing clouds.10 mph55%30.12 "Hg10 mi
2:53 PM85 °FScattered clouds.9 mph51%30.13 "Hg10 mi
1:53 PM85 °FScattered clouds.5 mph50%30.14 "Hg10 mi
12:53 PM84 °FScattered clouds.10 mph55%30.16 "Hg10 mi
11:53 AM83 °FPassing clouds.9 mph57%30.19 "Hg10 mi
10:53 AM83 °FPartly sunny.8 mph55%30.20 "Hg10 mi
9:53 AM82 °FPartly sunny.6 mph60%30.20 "Hg10 mi
8:53 AM77 °FScattered clouds.6 mph79%30.19 "Hg10 mi
7:53 AM75 °FOvercast.No wind88%30.18 "Hg10 mi
6:53 AM71 °FOvercast.No wind100%30.16 "Hg10 mi
5:53 AM71 °FPassing clouds.No wind96%30.15 "Hg10 mi
4:53 AM71 °FClear.No wind96%30.14 "Hg10 mi
3:53 AM72 °FPassing clouds.No wind93%30.13 "Hg10 mi
2:53 AM74 °FMostly cloudy.No wind88%30.13 "Hg10 mi
1:53 AM73 °FPassing clouds.No wind90%30.14 "Hg10 mi
12:53 AM74 °FPassing clouds.3 mph88%30.15 "Hg10 mi
11:53 PM
Thu, Mar 5
75 °FPartly cloudy.No wind85%30.16 "Hg10 mi
10:53 PM76 °FMostly cloudy.No wind82%30.16 "Hg10 mi
9:53 PM75 °FPassing clouds.No wind85%30.16 "Hg10 mi
8:53 PM76 °FPassing clouds.6 mph82%30.15 "Hg10 mi
7:53 PM77 °FClear.8 mph79%30.13 "Hg10 mi
Weather by CustomWeather, © 2015

See weather overviewHow to use our weather pages